Location: Unspecified
(0.0000°N, 0.0000°E)
Time: 04:24:41
(UTC+00:00)

CUTE 1.7 + AOD 2 - Pass Details

Date: 21 May 2026
Orbit: 531 x 545 km, 97.8° (Epoch: 11 June)

Event Time Altitude Azimuth Distance (km) Brightness Sun altitude
Rises 03:54:17 0° 19° (NNE) 2,658 ? -28.5°
Reaches altitude 10° 03:56:25 10° 24° (NNE) 1,773 ? -28.0°
Enters shadow 03:59:12 41° 52° (NE) 776 ? -27.4°
